GW0416 Weather Reports


time (UTC)temp
F
wind
direction
speed
knots
gust
knots
rain 1hr
in
rain 24hr
in
rain mn
in
humidity
%
barometer
mb
20260831184536 68 220 7.8 16.5 0.00 0.00 0.00 45 1016.6
20260831183038 67 344 7.8 13.0 0.00 0.00 0.00 46 1016.5
20260831181535 67 305 9.6 19.1 0.00 0.00 0.00 46 1016.5
20260831180044 67 285 11.3 15.6 0.00 0.00 0.00 45 1016.6
20260831174543 67 282 7.0 14.8 0.00 0.00 0.00 48 1016.6
20260831173039 66 291 8.7 13.9 0.00 0.00 0.00 49 1016.7
20260831171537 66 288 7.8 16.5 0.00 0.00 0.00 48 1016.5
20260831170037 65 315 7.8 17.4 0.00 0.00 0.00 51 1016.6
20260831164553 65 5 10.4 17.4 0.00 0.00 0.00 52 1016.6
20260831163041 64 321 9.6 19.1 0.00 0.00 0.00 54 1016.5
20260831161535 64 292 8.7 17.4 0.00 0.00 0.00 54 1016.4
20260831160043 63 306 9.6 18.2 0.00 0.00 0.00 54 1016.3
20260831154604 62 284 9.6 16.5 0.00 0.00 0.00 54 1016.3
20260831153036 61 294 12.2 17.4 0.00 0.00 0.00 55 1016.4
20260831151534 59 296 13.9 19.1 0.00 0.00 0.00 57 1016.2
20260831150043 58 295 13.9 20.0 0.00 0.00 0.00 58 1016.1
20260831144538 57 300 15.6 21.7 0.00 0.00 0.00 59 1015.8
20260831143038 56 281 13.0 21.7 0.00 0.00 0.00 62 1015.6
20260831141535 54 290 12.2 17.4 0.00 0.00 0.00 65 1015.5
20260831140038 53 276 9.6 15.6 0.00 0.00 0.00 67 1015.5
20260831134534 51 290 9.6 14.8 0.00 0.00 0.00 71 1015.2
20260831133035 49 270 8.7 13.9 0.00 0.00 0.00 73 1015.2
20260831131535 48 279 10.4 13.9 0.00 0.00 0.00 75 1014.9
20260831130107 46 284 7.0 9.6 0.00 0.00 0.00 78 1014.9
20260831124535 47 295 8.7 13.0 0.00 0.00 0.00 76 1014.7
20260831123033 47 290 7.8 11.3 0.00 0.00 0.00 76 1014.5
20260831121536 48 294 7.8 13.0 0.00 0.00 0.00 74 1014.5
20260831120040 49 276 9.6 14.8 0.00 0.00 0.00 72 1014.2
20260831114536 49 288 11.3 15.6 0.00 0.00 0.00 71 1014.1
20260831113038 49 266 9.6 14.8 0.00 0.00 0.00 71 1014.3
20260831111546 49 271 9.6 15.6 0.00 0.00 0.00 71 1014.2
20260831110040 50 254 11.3 16.5 0.00 0.00 0.00 71 1014.1
20260831104552 49 269 10.4 17.4 0.00 0.00 0.00 72 1014.1
20260831103039 49 273 10.4 14.8 0.00 0.00 0.00 72 1013.8
20260831101537 49 275 10.4 17.4 0.00 0.00 0.00 73 1013.6
20260831100038 49 283 9.6 16.5 0.00 0.00 0.00 73 1013.6
20260831094534 48 265 8.7 12.2 0.00 0.00 0.00 75 1013.6
20260831093046 48 281 4.3 10.4 0.00 0.00 0.00 76 1013.8
20260831091534 48 261 7.0 14.8 0.00 0.00 0.00 75 1013.8
20260831090041 48 271 10.4 13.9 0.00 0.00 0.00 74 1013.4
20260831084536 49 270 10.4 15.6 0.00 0.01 0.00 73 1013.3
20260831083038 49 246 8.7 15.6 0.00 0.01 0.00 74 1013.1
20260831081536 49 237 8.7 14.8 0.00 0.01 0.00 74 1012.9
20260831080037 48 263 9.6 14.8 0.00 0.01 0.00 76 1012.5
20260831074537 48 269 7.8 12.2 0.00 0.01 0.00 75 1012.8
20260831073037 49 242 9.6 14.8 0.00 0.01 0.00 74 1012.7
20260831071535 50 256 9.6 16.5 0.00 0.01 0.00 73 1012.8
20260831070038 50 248 10.4 17.4 0.00 0.01 0.00 72 1012.7
20260831064537 51 270 10.4 17.4 0.00 0.01 0.00 71 1012.7
20260831063035 52 275 11.3 20.0 0.00 0.01 0.00 69 1012.7
20260831061535 52 242 8.7 17.4 0.00 0.01 0.00 68 1013.0
20260831060043 52 242 10.4 17.4 0.00 0.01 0.00 67 1012.8
20260831054537 53 253 11.3 19.1 0.00 0.01 0.01 66 1012.7
20260831053036 53 257 11.3 16.5 0.00 0.01 0.01 65 1012.5
20260831051538 53 263 12.2 20.0 0.00 0.01 0.01 66 1012.5
20260831050037 53 276 11.3 19.1 0.00 0.01 0.01 67 1012.4
20260831044536 53 271 12.2 17.4 0.00 0.01 0.01 66 1012.6
20260831043037 54 291 13.0 19.1 0.00 0.01 0.01 66 1012.5
20260831041536 54 296 11.3 20.9 0.00 0.01 0.01 64 1012.7
20260831040035 58 292 13.0 20.0 0.00 0.01 0.01 52 1012.6
20260831034537 58 267 15.6 22.6 0.00 0.01 0.01 51 1012.5
20260831033039 59 267 14.8 24.3 0.00 0.01 0.01 51 1012.2
20260831031539 59 257 14.8 25.2 0.00 0.01 0.01 50 1012.2
20260831030038 58 259 15.6 25.2 0.00 0.01 0.01 51 1011.9
20260831024541 59 247 14.8 25.2 0.00 0.01 0.01 50 1011.9
20260831023037 59 250 16.5 26.1 0.00 0.01 0.01 50 1011.7
20260831021538 59 281 18.2 26.9 0.00 0.01 0.01 50 1011.4
20260831020036 59 243 13.9 23.5 0.00 0.01 0.01 50 1011.4
20260831014540 60 255 15.6 29.5 0.00 0.01 0.01 49 1011.3
20260831013039 61 261 14.8 29.5 0.00 0.01 0.01 48 1011.2
20260831011536 61 255 15.6 28.7 0.00 0.01 0.01 47 1011.3
20260831010040 59 289 11.3 21.7 0.00 0.01 0.01 52 1011.5
20260831004553 59 313 13.0 24.3 0.00 0.02 0.01 56 1011.6
20260831003034 60 288 12.2 20.0 0.00 0.02 0.01 54 1011.6
20260831001534 59 297 15.6 26.1 0.00 0.02 0.01 54 1011.7
20260831000035 61 277 20.9 29.5 0.00 0.02 0.01 46 1011.3
20260830234551 62 277 20.0 29.5 0.00 0.30 0.01 45 1011.2
20260830233034 63 286 18.2 32.2 0.00 0.30 0.01 43 1011.1
20260830231535 63 275 17.4 30.4 0.00 0.30 0.01 44 1011.1
20260830230036 63 282 23.5 33.9 0.00 0.30 0.01 42 1011.1
20260830224536 64 237 20.0 29.5 0.00 0.30 0.01 43 1011.1
20260830223040 62 236 15.6 21.7 0.00 0.30 0.01 46 1011.4
20260830221540 61 257 14.8 25.2 0.00 0.30 0.01 47 1011.5
20260830220037 61 247 18.2 26.9 0.00 0.30 0.01 48 1011.7
20260830214537 61 271 18.2 25.2 0.00 0.30 0.01 47 1011.8
20260830213038 61 232 17.4 31.3 0.00 0.30 0.01 46 1011.9
20260830211534 62 238 18.2 29.5 0.00 0.30 0.01 45 1011.9
20260830210041 62 255 15.6 32.2 0.00 0.30 0.01 45 1011.9
20260830204534 63 279 17.4 31.3 0.00 0.30 0.01 43 1011.9
20260830203046 62 360 22.6 31.3 0.00 0.30 0.01 46 1011.7
20260830201536 61 277 20.0 29.5 0.00 0.30 0.01 47 1011.8
20260830200032 62 266 20.0 29.5 0.00 0.30 0.01 45 1011.6
20260830194538 64 298 15.6 28.7 0.00 0.30 0.01 41 1011.6
20260830193038 63 238 18.2 29.5 0.00 0.30 0.01 42 1011.8
20260830191535 63 263 15.6 29.5 0.00 0.30 0.01 43 1011.7
20260830190038 63 246 17.4 26.9 0.00 0.30 0.01 41 1011.6